[[{"header":{"parameterUnit":"m.s-1","parameterCategory":1,"la1":30.2991,"la2":30.254,"lo1":-89.0895,"lo2":-89.0444,"dy":0.0017,"dx":0.0017,"nx":28,"ny":28,"refTime":"2025-12-23T09:00:00:Z","depth":0,"parameterNumber":2,"parameterNumberName":"U-component_of_WINDS"},"data":[0,0,0,0,0,0,0,0,0,0,0,0,0,0,0,0,0,0,0,0,0,0,0,0,0,0,0,0,0,0,0,0,0,0,0,0,0,0,0,0,0,0,0,0,0,0,0,0,0,0,0,0,0,0,0,0,0,0,-1.8551,-1.8551,0,-1.8555,-1.8555,-1.8555,-1.8491,-1.8489,-1.8487,-1.8486,-1.849,-1.8492,-1.8494,0,0,0,0,0,0,0,0,0,0,0,0,0,-1.8491,-1.8492,-1.8551,-1.8551,-1.8551,-1.8555,-1.8555,-1.8555,-1.8491,-1.8489,-1.8487,-1.8485,-1.849,-1.8492,-1.8494,0,0,0,0,0,0,0,0,0,0,0,0,0,-1.8508,-1.8493,-1.8551,-1.852,-1.8517,-1.8555,-1.8555,-1.8555,-1.8492,-1.8489,-1.8486,-1.8484,-1.8489,-1.8492,-1.8494,-1.8562,0,0,-1.8502,-1.8503,0,0,0,0,0,0,0,0,-1.8507,-1.851,-1.8525,-1.8522,-1.8519,-1.852,-1.8535,-1.8557,-1.8492,-1.8501,-1.8486,-1.8483,-1.8502,-1.8504,-1.851,-1.8563,-1.8563,-1.8502,-1.8504,-1.8505,-1.8506,0,0,0,0,0,0,0,-1.8506,-1.851,-1.8553,-1.8525,-1.8522,-1.8506,-1.8506,-1.8539,-1.8516,-1.85,-1.8496,-1.8497,-1.85,-1.8508,-1.851,-1.8563,-1.8502,-1.8505,-1.8506,-1.8507,-1.8672,-1.8674,0,0,0,0,0,0,-1.8509,-1.8509,-1.8553,-1.8553,-1.8507,-1.8509,-1.8509,-1.8522,-1.8516,-1.8512,-1.8499,-1.8494,-1.8504,-1.8507,-1.851,-1.8589,-1.8505,-1.8508,-1.8509,-1.8669,-1.8672,-1.8675,0,0,0,0,0,0,-1.8508,-1.8514,-1.8552,-1.853,-1.8534,-1.8513,-1.8529,-1.8524,-1.8531,-1.8515,-1.8511,-1.8511,-1.8503,-1.8506,-1.855,-1.8588,-1.8509,-1.8511,-1.8665,-1.867,-1.8674,-1.8748,0,0,0,0,0,0,-1.8507,-1.8514,-1.8539,-1.8531,-1.8535,-1.8592,-1.8531,-1.8526,-1.8535,-1.8529,-1.8525,-1.8521,-1.8501,-1.8546,-1.8552,-1.859,-1.8513,-1.8662,-1.8667,-1.8672,-1.8742,-1.8754,-1.8764,0,0,0,0,0,-1.8505,-1.856,-1.854,-1.8546,-1.8566,-1.8595,-1.8597,-1.8572,-1.8539,-1.8564,-1.8554,-1.8522,-1.8583,-1.8551,-1.8557,-1.8597,-1.8659,-1.8666,-1.8672,-1.8737,-1.8752,-1.8764,0,0,0,0,0,0,-1.8573,-1.8558,-1.8537,-1.8591,-1.8594,-1.8584,-1.8615,-1.8588,-1.8602,-1.8595,-1.8563,-1.8563,-1.8612,-1.8609,-1.8573,-1.8662,-1.8615,-1.8623,-1.8662,-1.8676,-1.8688,-1.8687,-1.8515,0,0,0,0,0,-1.8594,-1.8618,-1.8604,-1.8653,-1.8656,-1.8636,-1.8647,-1.8627,-1.863,-1.8631,-1.8624,-1.8628,-1.8648,-1.8662,-1.868,-1.8741,-1.874,-1.8772,-1.8783,-1.8792,-1.8799,-1.8832,-1.8846,-1.8696,-1.8696,-1.8696,0,0,-1.8639,-1.8634,-1.8651,-1.8667,-1.8667,-1.8693,-1.8637,-1.8667,-1.8686,-1.8636,-1.8676,-1.8672,-1.8674,-1.8727,-1.875,-1.8726,-1.884,-1.88,-1.8808,-1.881,-1.8839,-1.8854,-1.8866,-1.87,-1.8699,-1.8699,0,0,-1.8732,-1.8731,-1.8772,-1.8773,-1.8775,-1.8761,-1.8771,-1.8764,-1.8759,-1.88,-1.8763,-1.8785,-1.882,-1.8824,-1.883,-1.8926,-1.8897,-1.8933,-1.8992,-1.9024,-1.9036,-1.9046,-1.908,-1.9093,-1.894,-1.8941,-1.8941,0,-1.8787,-1.8824,-1.8796,-1.8828,-1.8837,-1.8793,-1.8834,-1.8837,-1.8845,-1.8852,-1.8825,-1.8868,-1.8867,-1.892,-1.8944,-1.895,-1.8961,-1.8933,-1.9036,-1.9046,-1.9055,-1.9088,-1.9101,-1.8945,-1.8944,-1.8944,-1.8944,0,-1.8892,-1.8918,-1.8951,-1.8959,-1.8971,-1.9008,-1.8986,-1.9001,-1.8981,-1.897,-1.9012,-1.9009,-1.9025,-1.9037,-1.9017,-1.9087,-1.9072,-1.9042,-1.8993,-1.9074,-1.9104,-1.9116,-1.8951,-1.895,-1.8948,-1.8947,0,0,-1.9028,-1.902,-1.9033,-1.9036,-1.9035,-1.9054,-1.909,-1.9105,-1.9119,-1.9127,-1.9155,-1.9186,-1.9158,-1.9165,-1.9146,-1.9174,-1.925,-1.9139,-1.9139,-1.916,-1.9327,-1.935,-1.9365,-1.9231,-1.9233,-1.9235,-1.9327,0,-1.9118,-1.9177,-1.9153,-1.9214,-1.9238,-1.9197,-1.9228,-1.9231,-1.9222,-1.9241,-1.9231,-1.9254,-1.9215,-1.9219,-1.9245,-1.9235,-1.9283,-1.9229,-1.9258,-1.9259,-1.9257,-1.938,-1.9405,-1.9491,-1.9338,-1.934,-1.9342,0,-1.9232,-1.9243,-1.9307,-1.9301,-1.9311,-1.9338,-1.9351,-1.937,-1.9373,-1.9364,-1.9373,-1.9348,-1.9382,-1.9335,-1.9382,-1.9345,-1.9356,-1.9353,-1.9356,-1.9357,-1.9305,-1.9385,-1.9518,-1.9531,-1.936,-1.9358,-1.9357,0,-1.9324,-1.9356,-1.9397,-1.9402,-1.9397,-1.9417,-1.9416,-1.9416,-1.9427,-1.9439,-1.9446,-1.9461,-1.947,-1.9483,-1.9462,-1.943,-1.9513,-1.9464,-1.9507,-1.9507,-1.9525,-1.9524,-1.9662,-1.9533,-1.9533,-1.9533,-1.9533,0,-1.9428,-1.9468,-1.9439,-1.9465,-1.9509,-1.9482,-1.9526,-1.9521,-1.9521,-1.9546,-1.9511,-1.9535,-1.9507,-1.9528,-1.9513,-1.9554,-1.9558,-1.9552,-1.9548,-1.9555,-1.9556,-1.9561,-1.9554,-1.9536,-1.9535,-1.9535,-1.9534,0,-1.9538,-1.952,-1.9563,-1.9555,-1.9554,-1.9587,-1.958,-1.9604,-1.9593,-1.9624,-1.963,-1.9613,-1.9636,-1.9617,-1.964,-1.9629,-1.9684,-1.9671,-1.9683,-1.9679,-1.9723,-1.9719,-1.9869,-1.9887,-1.9747,-1.9748,-1.975,0,-1.9605,-1.9635,-1.963,-1.9644,-1.9645,-1.9668,-1.9679,-1.9654,-1.9667,-1.9672,-1.9696,-1.9716,-1.973,-1.977,-1.9759,-1.9777,-1.9764,-1.9815,-1.9766,-1.9773,-1.9764,-1.9762,-1.9765,-1.9825,-1.9826,-1.9828,-1.9829,0,-1.9726,-1.9715,-1.9733,-1.9747,-1.9761,-1.9772,-1.9779,-1.9793,-1.9767,-1.9783,-1.9806,-1.9818,-1.9841,-1.9862,-1.9876,-1.9875,-1.9848,-1.9844,-1.9855,-1.9863,-1.9868,-1.9865,-1.971,-1.9841,-1.984,-1.9839,-1.9838,-1.9838,-1.9816,-1.9841,-1.9841,-1.9862,-1.9865,-1.9873,-1.9895,-1.9887,-1.9905,-1.9922,-1.9906,-1.9934,-1.9937,-1.9952,-1.9955,-1.9977,-1.9956,-1.9972,-1.9975,-1.998,-1.9986,-1.9865,-1.998,-1.9979,-1.9979,-1.9979,-1.9978,0,-1.9934,-1.9933,-1.9952,-1.9964,-1.998,-1.9953,-1.996,-1.9976,-2.0001,-2.0005,-2.002,-2.0047,-2.0067,-2.0059,-2.0077,-2.0096,-2.0084,-2.0101,-2.0099,-2.01,-2.0004,-1.9992,-2.0111,-2.0111,-2.0111,-2.0111,-2.011,-2.011,-1.9998,-2.0038,-2.0028,-2.007,-2.0069,-2.0095,-2.0102,-2.0109,-2.0113,-2.0144,-2.016,-2.0155,-2.0154,-2.0172,-2.0189,-2.0186,-2.0194,-2.0216,-2.0209,-2.0119,-2.0106,-2.0094,-2.0083,-2.0218,-2.0218,-2.0302,-2.0303,-2.0304]},{"header":{"parameterUnit":"m.s-1","parameterCategory":1,"la1":30.2991,"la2":30.254,"lo1":-89.0895,"lo2":-89.0444,"dy":0.0017,"dx":0.0017,"nx":28,"ny":28,"refTime":"2025-12-23T09:00:00:Z","depth":0,"parameterNumber":3,"parameterNumberName":"V-component_of_WINDS"},"data":[0,0,0,0,0,0,0,0,0,0,0,0,0,0,0,0,0,0,0,0,0,0,0,0,0,0,0,0,0,0,0,0,0,0,0,0,0,0,0,0,0,0,0,0,0,0,0,0,0,0,0,0,0,0,0,0,0,0,0.2303,0.2304,0,0.2354,0.2355,0.2355,0.241,0.2411,0.2411,0.2412,0.2463,0.2463,0.2464,0,0,0,0,0,0,0,0,0,0,0,0,0,0.2253,0.2253,0.2303,0.2304,0.2305,0.2354,0.2355,0.2356,0.241,0.2411,0.2412,0.2413,0.2462,0.2463,0.2464,0,0,0,0,0,0,0,0,0,0,0,0,0,0.2286,0.2254,0.2303,0.2338,0.2341,0.2354,0.2355,0.2356,0.241,0.2411,0.2412,0.2413,0.2462,0.2463,0.2464,0.2446,0,0,0.2467,0.2467,0,0,0,0,0,0,0,0,0.2284,0.2288,0.2332,0.2335,0.2339,0.2377,0.2356,0.2386,0.2409,0.2384,0.2412,0.2414,0.2433,0.2436,0.2443,0.2449,0.2451,0.2467,0.2467,0.2468,0.2468,0,0,0,0,0,0,0,0.2282,0.2286,0.2324,0.2333,0.2337,0.235,0.2357,0.2362,0.2401,0.2386,0.239,0.2395,0.2435,0.2442,0.2445,0.2452,0.2467,0.2468,0.2468,0.2469,0.2447,0.2446,0,0,0,0,0,0,0.2274,0.2284,0.2322,0.2325,0.2314,0.235,0.2357,0.2364,0.2401,0.2408,0.2394,0.2398,0.244,0.2444,0.2447,0.243,0.2468,0.2469,0.2469,0.2448,0.2446,0.2445,0,0,0,0,0,0,0.2273,0.2277,0.232,0.2306,0.2312,0.235,0.2357,0.2364,0.2371,0.2408,0.2415,0.2394,0.2441,0.2446,0.2447,0.2432,0.2469,0.247,0.2449,0.2447,0.2446,0.2395,0,0,0,0,0,0,0.2271,0.2277,0.227,0.2305,0.2313,0.2319,0.2356,0.2364,0.2373,0.2378,0.241,0.2416,0.2443,0.2445,0.2447,0.2434,0.2471,0.2451,0.2448,0.2446,0.2398,0.2392,0.2386,0,0,0,0,0,0.2269,0.2253,0.227,0.2274,0.2306,0.2318,0.2322,0.2354,0.2372,0.2366,0.2389,0.2415,0.2433,0.2445,0.2448,0.2435,0.2452,0.2449,0.2446,0.2401,0.2393,0.2386,0,0,0,0,0,0,0.2215,0.2258,0.2277,0.2272,0.2291,0.2327,0.232,0.2344,0.2358,0.2362,0.24,0.2406,0.2403,0.2419,0.2431,0.2421,0.2446,0.2444,0.241,0.2403,0.2397,0.2394,0.2471,0,0,0,0,0,0.2203,0.2209,0.2246,0.2238,0.2247,0.2282,0.2288,0.2311,0.2332,0.234,0.2364,0.2383,0.2393,0.2399,0.241,0.2401,0.2409,0.2393,0.2387,0.2382,0.238,0.2377,0.2371,0.2437,0.2437,0.2437,0,0,0.2177,0.2201,0.2203,0.2228,0.2245,0.2251,0.2288,0.2293,0.2297,0.2341,0.2344,0.2361,0.2385,0.2381,0.238,0.2394,0.2364,0.2379,0.2375,0.2376,0.2374,0.2368,0.2362,0.2435,0.2435,0.2436,0,0,0.2133,0.2151,0.2147,0.2164,0.219,0.2214,0.2213,0.2246,0.226,0.2263,0.2296,0.2302,0.2319,0.2335,0.2345,0.2308,0.2333,0.2311,0.228,0.2277,0.2272,0.2267,0.2255,0.225,0.2309,0.2308,0.2308,0,0.2097,0.2107,0.2142,0.2145,0.2155,0.2195,0.2192,0.2206,0.2234,0.2241,0.2256,0.2279,0.2297,0.2298,0.2289,0.2296,0.2296,0.2307,0.227,0.2266,0.2262,0.2251,0.2246,0.2306,0.2306,0.2306,0.2307,0,0.2063,0.2069,0.2063,0.209,0.21,0.2099,0.2134,0.2139,0.2161,0.2183,0.2187,0.2211,0.2228,0.223,0.2251,0.2234,0.2242,0.2263,0.229,0.2253,0.2243,0.2239,0.2302,0.2303,0.2304,0.2304,0,0,0.1985,0.2033,0.203,0.2043,0.2075,0.2081,0.2083,0.2101,0.2105,0.2123,0.2126,0.214,0.216,0.2171,0.2195,0.2192,0.2162,0.2213,0.2214,0.2203,0.2146,0.213,0.2125,0.2178,0.2178,0.2177,0.2144,0,0.1948,0.1953,0.1985,0.1981,0.1988,0.2027,0.2029,0.2048,0.2069,0.2078,0.2101,0.2111,0.2136,0.2143,0.2142,0.2166,0.2151,0.2169,0.2181,0.2181,0.2175,0.2119,0.2103,0.207,0.214,0.214,0.2139,0,0.1904,0.1921,0.1918,0.1952,0.1956,0.1956,0.1976,0.1984,0.2008,0.2023,0.2036,0.2063,0.2067,0.2092,0.2098,0.2109,0.2116,0.2129,0.2128,0.2131,0.2158,0.2121,0.2061,0.2056,0.2133,0.2134,0.2134,0,0.1849,0.1871,0.1872,0.1882,0.1921,0.1921,0.1937,0.1962,0.1971,0.1988,0.1994,0.2011,0.202,0.2033,0.2063,0.2078,0.2066,0.2093,0.2079,0.2079,0.2075,0.2075,0.2016,0.2079,0.2079,0.2079,0.2079,0,0.1804,0.1801,0.1848,0.1849,0.1847,0.1884,0.1881,0.19,0.1922,0.1928,0.1962,0.1966,0.2006,0.2015,0.2039,0.2041,0.2045,0.2057,0.2064,0.2055,0.2053,0.206,0.2063,0.2078,0.2078,0.2078,0.2078,0,0.1742,0.1774,0.1778,0.1815,0.1824,0.1821,0.1853,0.1855,0.1878,0.1885,0.1888,0.1924,0.1937,0.1969,0.1989,0.2005,0.2001,0.2012,0.1993,0.1997,0.1982,0.1983,0.1925,0.192,0.1985,0.1985,0.1984,0,0.1711,0.171,0.1747,0.1754,0.1769,0.1778,0.1788,0.1824,0.1833,0.1861,0.186,0.1875,0.1889,0.1908,0.1935,0.1952,0.1964,0.1943,0.1967,0.1958,0.1965,0.1965,0.1965,0.1937,0.1937,0.1936,0.1935,0,0.1654,0.167,0.1683,0.1702,0.1713,0.1729,0.1747,0.1751,0.1791,0.1799,0.1813,0.1824,0.1846,0.1861,0.1881,0.1898,0.1923,0.1928,0.1925,0.1916,0.1905,0.1912,0.198,0.1929,0.1929,0.193,0.193,0.193,0.1608,0.1609,0.1635,0.1649,0.1667,0.1683,0.1688,0.1712,0.1724,0.1745,0.1765,0.1777,0.1802,0.1832,0.1847,0.1857,0.187,0.1866,0.1865,0.1864,0.186,0.1903,0.186,0.1861,0.1861,0.1861,0.1861,0,0.1553,0.1572,0.1584,0.1609,0.162,0.1644,0.1665,0.1673,0.1683,0.1704,0.1718,0.1734,0.1749,0.1778,0.1796,0.1798,0.181,0.1801,0.1802,0.1805,0.1847,0.1848,0.1791,0.1791,0.1791,0.1791,0.1791,0.1791,0.1525,0.1529,0.1548,0.1561,0.158,0.1593,0.1603,0.1619,0.1636,0.1653,0.1665,0.1685,0.1709,0.1729,0.1744,0.1753,0.1758,0.1745,0.1757,0.1796,0.1802,0.1809,0.1809,0.1746,0.1746,0.1715,0.1715,0.1715]}]]